Home > Weather > Sassari > Past weeks

Flag for Italy Past Weather in Sassari, Italy — Yesterday and Last 2 Weeks

Now
82 °F

Passing clouds.


Feels Like: 85 °F
Forecast: 66 / 86 °F
Wind: 10 mph from West

Location: Alghero Airport

Current Time: Jul 25, 2016 at 4:15:18 PM

Latest Report: Jul 25, 2016 at 3:20 PM


Visibility: N/A

Pressure: 30.01 "Hg

Humidity: 58%

Dew Point: 66 °F

Location of SassariLocation

Past Weather in Sassari — Graph

°F

Sassari Temperature Yesterday

Maximum temperature yesterday: 75 °F (at 8:50 AM)
Minimum temperature yesterday: 66 °F (at 11:20 AM)
Average temperature yesterday: 71 °F

High & Low Weather Summary for the Past Weeks

 TemperatureHumidityPressure
High102 °F (Jul 22, 3:50 PM)94% (Jul 11, 6:50 AM)30.18 "Hg (Jul 11, 6:50 AM)
Low54 °F (Jul 16, 6:20 AM)12% (Jul 22, 11:50 AM)29.80 "Hg (Jul 23, 3:50 AM)
Average76 °F55%30.02 "Hg
* Reported Jul 10 2:20 PM — Jul 25 2:50 PM, Sassari, Weather by CustomWeather, © 2016

Note: Actual official high and low records may vary slightly from our data, if they occured in-between our weather recording intervals... More about our weather records

Advertising

Sassari Weather History for the Previous 24 Hours

Scroll right to see more
 ConditionsComfort  
Time TempWeatherWind HumidityBarometerVisibility
2:50 PM
Mon, Jul 25
82 °FPassing clouds.10 mph55%30.01 "HgN/A
2:20 PM81 °FPassing clouds.10 mph66%30.01 "HgN/A
1:50 PM82 °FPassing clouds.10 mph62%30.01 "HgN/A
1:20 PM82 °FPassing clouds.9 mph58%30.01 "HgN/A
12:50 PM81 °FScattered clouds.7 mph62%30.01 "HgN/A
12:20 PM82 °FScattered clouds.6 mph62%30.01 "HgN/A
11:50 AM81 °FScattered clouds.3 mph62%30.01 "HgN/A
11:20 AM81 °FScattered clouds.5 mph66%30.01 "HgN/A
10:50 AM77 °FScattered clouds.3 mph74%30.01 "HgN/A
10:20 AM77 °FScattered clouds.3 mph79%30.04 "HgN/A
9:50 AM77 °FScattered clouds.2 mph79%30.04 "HgN/A
9:20 AM73 °FScattered clouds.No wind94%30.01 "HgN/A
8:50 AM72 °FPartly sunny.1 mph94%30.01 "Hg5 mi
8:20 AM72 °FPartly sunny.2 mph88%30.01 "Hg5 mi
7:50 AM70 °FPartly sunny.2 mph94%30.01 "Hg5 mi
7:20 AM68 °FPartly sunny.3 mph94%30.01 "Hg5 mi
6:50 AM68 °FPassing clouds.2 mph94%29.98 "Hg5 mi
6:20 AM68 °FPassing clouds.1 mph94%30.01 "HgN/A
5:50 AM68 °FPassing clouds.2 mph94%29.98 "HgN/A
5:20 AM68 °FPassing clouds.1 mph94%29.98 "HgN/A
4:50 AM68 °FPassing clouds.6 mph94%29.98 "HgN/A
4:20 AM66 °FPassing clouds.1 mph94%29.98 "HgN/A
3:50 AM66 °FPassing clouds.3 mph94%29.98 "HgN/A
3:20 AM66 °FPassing clouds.1 mph94%30.01 "HgN/A
2:50 AM68 °FPassing clouds.No wind88%30.01 "HgN/A
2:20 AM68 °FPassing clouds.2 mph88%30.01 "HgN/A
1:50 AM68 °FClear.2 mph88%30.01 "Hg10 mi
1:20 AM68 °FPassing clouds.1 mph88%30.01 "HgN/A
12:50 AM70 °FPassing clouds.3 mph88%30.01 "HgN/A
12:20 AM68 °FClear.3 mph88%30.01 "Hg10 mi
11:50 PM
Sun, Jul 24
70 °FClear.5 mph88%30.01 "Hg10 mi
11:20 PM70 °FPassing clouds.5 mph88%30.01 "HgN/A
10:50 PM72 °FPassing clouds.5 mph83%30.01 "HgN/A
10:20 PM70 °FPassing clouds.3 mph88%29.98 "HgN/A
9:50 PM70 °FPassing clouds.5 mph83%29.98 "HgN/A
9:20 PM72 °FPassing clouds.6 mph78%29.98 "HgN/A
8:50 PM73 °FPassing clouds.7 mph69%29.95 "HgN/A
8:20 PM73 °FPassing clouds.8 mph69%29.95 "HgN/A
7:50 PM75 °FPassing clouds.9 mph69%29.95 "HgN/A
7:20 PM75 °FPassing clouds.10 mph65%29.95 "HgN/A
6:50 PM73 °FScattered clouds.12 mph74%29.95 "HgN/A
6:20 PM75 °FScattered clouds.14 mph65%29.95 "HgN/A
5:50 PM75 °FScattered clouds.20 mph69%29.95 "HgN/A
5:20 PM75 °FScattered clouds.16 mph69%29.95 "HgN/A
4:50 PM73 °FScattered clouds.13 mph83%29.95 "HgN/A
4:20 PM73 °FScattered clouds.15 mph78%29.92 "HgN/A
Weather by CustomWeather, © 2016

See weather overviewHow to use our weather pages